User: anonymous   Login
Location: Arrakis Observatory
(44.1122°N, 95.7153°W)
Time: 19:51:13
(UTC-05:00)
Language:

Iridium 35 - Orbit

View from above orbital plane
View from above orbital plane
View from above satellite
View from above satellite

Ground track
Ground track

The orbit data is extracted from the following two-line orbital elements,

1 24966U 97056B   17295.46256793 -.00000028  00000-0 -17076-4 0  9997
2 24966  86.3931 265.4582 0002171  82.6803 277.4639 14.34215667 50775
Epoch (UTC): 22 October 2017 11:06:05
Eccentricity: 0.0002171
inclination: 86.3931°
perigee height: 776 km
apogee height: 779 km
right ascension of ascending node: 265.4582°
argument of perigee: 82.6803°
revolutions per day: 14.34215667
mean anomaly at epoch: 277.4639°
orbit number at epoch: 5077

The dashed part of the orbit path shows where the satellite is in the earth's shadow,  

DLR